Regional Weather Roundup
Issued by NWS

Home | Current Version | Previous Version | Graphics & Text | Print | Product List | Glossary On
Versions: 1 2 3 4 5 6 7 8 9 10 11 12 13 14 15 16 17 18 19 20 21 22 23 24 25 26 27 28 29 30 31 32 33 34 35 36 37 38 39 40 41 42 43 44 45 46 47 48 49 50
000
ASUS45 KBOU 271507
RWRCO

WEATHER ROUNDUP FOR COLORADO
NATIONAL WEATHER SERVICE DENVER/BOULDER CO
900 AM MDT THU AUG 27 2015

NOTE: "FAIR" INDICATES FEW OR NO CLOUDS BELOW 12000 FEET WITH NO
SIGNIFICANT WEATHER AND/OR OBSTRUCTIONS TO VISIBILITY.

COZ001>005-013-030-031-271600-
...NORTHWEST COLORADO...

CITY           SKY/WX    TMP DP  RH WIND       PRES   REMARKS
CRAIG          PTSUNNY   61  58  90 CALM      30.32S
HAYDEN         NOT AVBL
MEEKER         CLOUDY    62  57  83 CALM      30.33S
MOUNT WERNER   NOT AVBL
STEAMBOAT SPGS CLOUDY    57  55  93 CALM      30.34S
WALDEN         CLOUDY    54  50  87 CALM      30.38S
$$

COZ006>008-011-271600-
...WEST CENTRAL VALLEYS...

CITY           SKY/WX    TMP DP  RH WIND       PRES   REMARKS
GRAND JUNCTION LGT RAIN  61  61 100 E8        30.27S FOG
MONTROSE       CLOUDY    63  59  87 S6        30.34S
EAGLE          CLOUDY    59  57  94 CALM      30.37S
RIFLE          CLOUDY    63  59  87 CALM      30.30S
DELTA          RAIN      65  62  91 E3        30.31S
NUCLA          CLOUDY    64  55  72 CALM      30.38S
$$

COZ017>023-064>068-271600-
...SOUTHWEST COLORADO...

CITY           SKY/WX    TMP DP  RH WIND       PRES   REMARKS
DURANGO        CLOUDY    60  55  83 CALM      30.40R
CORTEZ         CLOUDY    62  59  90 E3        30.36R
PAGOSA SPRINGS PTSUNNY   56  53  87 CALM      30.46S
TELLURIDE      CLOUDY    55  52  90 CALM      30.54R
WOLF CREEK PAS SNOW      41  41 100 SW12G18   30.70R VSB<1/4
$$

COZ009-010-012-014-032>034-037-058>063-271600-
...CENTRAL COLORADO...

CITY           SKY/WX    TMP DP  RH WIND       PRES   REMARKS
ASPEN          CLOUDY    56  53  90 CALM      30.42R
BUENA VISTA    CLOUDY    62  47  59 SE5       30.39F
COPPER MTN     CLOUDY    46  41  81 SW13G20   30.64S
BERTHOUD PASS  HAZE      37  28  70 NW28G37   30.64S VSB 1
COTTONWOOD PAS CLOUDY    57  45  62 NW7G18    30.50S
GUNNISON       CLOUDY    55  52  88 E3        30.46R
KREMMLING      CLOUDY    55  52  88 CALM      30.39S
LEADVILLE      CLOUDY    52  43  71 N13G21    30.50S
SALIDA         PTSUNNY   67  49  52 SW8G17    30.44R
SUNLIGHT       FOG       50  50 100 CALM      30.60S VSB<1/4
WILKERSON PASS CLOUDY    48  43  81 W6        30.60S
$$

COZ069>075-271600-
...SAN LUIS VALLEY/SANGRE DE CRISTO MOUNTAINS...

CITY           SKY/WX    TMP DP  RH WIND       PRES   REMARKS
ALAMOSA        PTSUNNY   57  52  83 VRB5      30.41S
LA VETA PASS   MOSUNNY   52  43  71 MISG      30.51S
SAGUACHE       NOT AVBL
$$

COZ035-036-038>040-271600-
...NORTHERN COLORADO FRONT RANGE...

CITY           SKY/WX    TMP DP  RH WIND       PRES   REMARKS
DENVER INTL AP PTSUNNY   74  47  38 NE5       30.16S
DMNS CITY PARK   N/A     74  51  43 E10       30.15R
AURORA         PTSUNNY   74  47  39 E3        30.18S
FRONT RANGE AP PTSUNNY   73  46  38 N3        30.18S
ERIE MUNI ARPT PTSUNNY   76  46  34 E6        30.14S
BOULDER MUN AP PTSUNNY   77  52  41 N3        30.14S
CENTENNIAL     PTSUNNY   73  48  41 NW5       30.19S
BROOMFIELD     NOT AVBL
FORT COLLINS   PTSUNNY   72  50  46 N3        30.15S
LONGMONT       PTSUNNY   74  53  48 E3        30.15S
$$

COZ041-046-047-076>085-087-088-271600-
...PIKES PEAK/PALMER DIVIDE AND SOUTHERN FOOTHILLS...

CITY           SKY/WX    TMP DP  RH WIND       PRES   REMARKS
COLO. SPRINGS  PTSUNNY   78  47  33 NW8       30.21F
A. F. ACADEMY  PTSUNNY   73  45  36 W14       30.22F
ELLICOTT       PTSUNNY  N/A N/A N/A N8        30.19
FALCON         PTSUNNY   74  45  34 NW13      30.26F
FORT CARSON    CLOUDY    72  51  46 VRB1      30.18S
LIMON          MOSUNNY   73  48  41 NW14      30.14S
MONUMENT HILL  MOSUNNY   66  45  45 W6        30.27S
TRINIDAD       MOSUNNY   76  49  38 NW6       30.21F
$$

COZ042>045-048>051-090-091-271600-
...NORTHEAST COLORADO...

CITY           SKY/WX    TMP DP  RH WIND       PRES   REMARKS
GREELEY ARPT   PTSUNNY   75  52  43 NW14G21   30.13R
AKRON          MOSUNNY   72  51  47 NW17      30.07F
BURLINGTON     PTSUNNY   76  49  38 NW20      30.04S
WRAY           CLOUDY    78  50  38 NW18      29.97S
STERLING       MOSUNNY   73  55  53 S5        30.02S
HOLYOKE        CLOUDY    77  61  57 NW10G16   29.97S
FORT MORGAN    MOSUNNY   79  48  33 NW20G28   30.09S
$$

COZ086-089-092>099-271600-
...SOUTHEAST COLORADO...

CITY           SKY/WX    TMP DP  RH WIND       PRES   REMARKS
PUEBLO         CLOUDY    81  49  32 W10       30.11F
LA JUNTA       MOSUNNY   84  51  31 W9        30.07S
LAMAR          MOSUNNY   80  53  39 SW14      30.03S
SPRINGFIELD      N/A     80  53  39 SW14G20   30.10F
$$



USA.gov is the U.S. government's official web portal to all federal, state and local government web resources and services.